Location: Krakow
(50.0830°N, 19.9170°E)
Time: 11:30:44
(UTC+02:00)

Tiros 1 - Pass Details

Date: 17 February 2023
Orbit: 627 x 662 km, 48.4° (Epoch: 26 March)

Event Time Altitude Azimuth Distance (km) Brightness Sun altitude
Rises 00:42:51 0° 281° (W) 2,913 - -50.8°
Reaches altitude 10° 00:45:31 10° 267° (W) 2,005 - -50.6°
Maximum altitude 00:49:10 24° 214° (SW) 1,316 - -50.4°
Drops below altitude 10° 00:52:51 10° 161° (SSE) 2,007 - -50.2°
Sets 00:55:31 0° 148° (SSE) 2,917 - -50.0°
